Location: ??????
(31.2056°N, 45.3906°E)
Time: 20:56:30
(UTC+00:00)

CENTAUR R/B - Pass Details

Date: 09 April 2020
Orbit: 761 x 1427 km, 63.5° (Epoch: 29 May)

Event Time Altitude Azimuth Distance (km) Brightness Sun altitude
Exits shadow 23:25:42 37° 25° (NNE) 1,421 3.6 -37.5°
Drops below altitude 10° 23:29:33 10° 28° (NNE) 2,792 5.6 -36.9°
Sets 23:32:23 0° 29° (NNE) 3,852 6.5 -36.4°
